Find Qianfan Xingzuo 01-06

NORAD ID: 60384 Int'l Des: 2024-140 Owner: YUANX Country: CN Constellation: spacesail operational
LEOCIRCULARPOLAR

当前视图

正在加载3D地球...

About Qianfan Xingzuo 01-06

Qianfan Xingzuo 01-06 (NORAD 60384) is a spacesail constellation satellite launched Aug 6, 2024 by YUANX of CN. It operates in LEO, CIRCULAR, POLAR orbit with a mass of 267.00 kg.

关于 Qianfan Xingzuo 01-06

正在加载描述...

即将过境

Passes for default location (London). Set your location on the main map for personalized predictions.

高度历史

Loading altitude history...

两行轨道根数

1 60384U 24140F 26194.85477971 .00000098 00000-0 13352-3 0 9996
2 60384 88.9739 276.9210 0010904 304.3791 55.6328 13.51018667 96276
Epoch: Jul 13, 2026 • Age: 8 hours

当前状态

高度 1090.7 km
远地点 / 近地点 N/A
速度 7.31 km/s
星下点 -88.51°S, 133.85°E
发射日期 Aug 6, 2024
运行时间 1.9 years
类型 internet

技术详情

分类 Payload
质量 267.00 kg
干质量 267.00 kg
总质量 267.00 kg
长度 0.30 m
直径 3.00 m
跨度 10.00 m
形状 Box+pan
制造商 SECM
平台类型 Qianfan
阶段状态 In Orbit
所有者/国家 YUANX/CN

Most Searched